[[{"header":{"parameterUnit":"m.s-1","parameterCategory":1,"la1":30.2991,"la2":30.254,"lo1":-89.0895,"lo2":-89.0444,"dy":0.0017,"dx":0.0017,"nx":28,"ny":28,"refTime":"2024-10-21T09:00:00:Z","depth":0,"parameterNumber":2,"parameterNumberName":"U-component_of_WINDS"},"data":[0,0,0,0,0,0,0,0,0,0,0,0,0,0,0,0,0,0,0,0,0,0,0,0,0,0,0,0,0,0,0,0,0,0,0,0,0,0,0,0,0,0,0,0,0,0,0,0,0,0,0,0,0,0,0,0,0,0,-1.701,-1.7011,0,-1.7069,-1.707,-1.7071,-1.7002,-1.7,-1.6997,-1.6995,-1.7056,-1.7059,-1.7063,0,0,0,0,0,0,0,0,0,0,0,0,0,-1.6838,-1.6842,-1.701,-1.7011,-1.7012,-1.7069,-1.707,-1.7071,-1.7003,-1.7,-1.6997,-1.6994,-1.7054,-1.7059,-1.7064,0,0,0,0,0,0,0,0,0,0,0,0,0,-1.6907,-1.6843,-1.701,-1.6985,-1.6983,-1.7069,-1.707,-1.7071,-1.7003,-1.7,-1.6996,-1.6992,-1.7053,-1.7058,-1.7064,-1.7178,0,0,-1.7083,-1.7085,0,0,0,0,0,0,0,0,-1.6903,-1.6913,-1.6988,-1.6986,-1.6985,-1.7024,-1.7031,-1.7107,-1.7004,-1.6996,-1.6995,-1.699,-1.7048,-1.7054,-1.7074,-1.7181,-1.7184,-1.7083,-1.7087,-1.7089,-1.7091,0,0,0,0,0,0,0,-1.6898,-1.691,-1.7033,-1.6989,-1.6987,-1.697,-1.6976,-1.7045,-1.7043,-1.6996,-1.6991,-1.6999,-1.7047,-1.7068,-1.7075,-1.7185,-1.7083,-1.7088,-1.7092,-1.7094,-1.7388,-1.7392,0,0,0,0,0,0,-1.6896,-1.6906,-1.7031,-1.7035,-1.6933,-1.6976,-1.6982,-1.7016,-1.7042,-1.7042,-1.7002,-1.6996,-1.706,-1.7068,-1.7077,-1.7213,-1.7089,-1.7095,-1.7098,-1.7384,-1.7389,-1.7394,0,0,0,0,0,0,-1.6893,-1.6908,-1.7029,-1.697,-1.6984,-1.6983,-1.7021,-1.7019,-1.704,-1.7047,-1.7046,-1.7025,-1.7057,-1.7068,-1.7154,-1.7214,-1.7098,-1.7103,-1.7379,-1.7386,-1.7392,-1.7485,0,0,0,0,0,0,-1.6888,-1.6907,-1.6951,-1.6971,-1.6987,-1.7106,-1.7025,-1.7023,-1.7051,-1.7043,-1.7068,-1.7068,-1.7055,-1.7145,-1.716,-1.722,-1.7108,-1.7374,-1.7382,-1.739,-1.7477,-1.7494,-1.7508,0,0,0,0,0,-1.6882,-1.6975,-1.6953,-1.6969,-1.7041,-1.7109,-1.7118,-1.7102,-1.7056,-1.71,-1.7104,-1.7067,-1.7204,-1.7154,-1.717,-1.7233,-1.737,-1.738,-1.7389,-1.747,-1.749,-1.7508,0,0,0,0,0,0,-1.6961,-1.6977,-1.6953,-1.7055,-1.7081,-1.7098,-1.7152,-1.7124,-1.7164,-1.7155,-1.7132,-1.7138,-1.7229,-1.7239,-1.7183,-1.7345,-1.728,-1.7293,-1.7336,-1.7355,-1.7371,-1.7368,-1.7113,0,0,0,0,0,-1.6991,-1.7044,-1.7055,-1.7143,-1.7158,-1.7153,-1.7182,-1.7166,-1.7193,-1.7204,-1.7214,-1.7241,-1.729,-1.7323,-1.7368,-1.7477,-1.7482,-1.7528,-1.7544,-1.7557,-1.7569,-1.7628,-1.7649,-1.7425,-1.7425,-1.7425,0,0,-1.7052,-1.7067,-1.7102,-1.716,-1.7178,-1.7235,-1.7163,-1.7225,-1.7267,-1.7213,-1.7295,-1.7303,-1.7331,-1.7429,-1.7473,-1.7441,-1.7632,-1.7569,-1.7579,-1.7585,-1.764,-1.7661,-1.768,-1.7431,-1.743,-1.7429,0,0,-1.7192,-1.7209,-1.7285,-1.7305,-1.7334,-1.733,-1.7348,-1.7369,-1.7372,-1.7454,-1.7414,-1.7463,-1.7548,-1.757,-1.7593,-1.7741,-1.7709,-1.7756,-1.784,-1.7898,-1.7915,-1.7931,-1.7985,-1.8005,-1.7768,-1.7768,-1.7768,0,-1.7265,-1.7349,-1.7328,-1.7393,-1.742,-1.7373,-1.745,-1.747,-1.7513,-1.7533,-1.7495,-1.7601,-1.7617,-1.772,-1.7756,-1.7775,-1.7795,-1.7754,-1.7915,-1.793,-1.7944,-1.7996,-1.8016,-1.7774,-1.7773,-1.7772,-1.7772,0,-1.7437,-1.7495,-1.7553,-1.7596,-1.7628,-1.77,-1.7689,-1.7725,-1.7706,-1.7706,-1.779,-1.7807,-1.7855,-1.7878,-1.786,-1.7979,-1.7958,-1.7918,-1.7852,-1.7972,-1.802,-1.8039,-1.7782,-1.778,-1.7778,-1.7777,0,0,-1.7631,-1.766,-1.7682,-1.7701,-1.7729,-1.7774,-1.7842,-1.789,-1.7921,-1.7951,-1.8009,-1.8082,-1.8045,-1.807,-1.8055,-1.8105,-1.8223,-1.8059,-1.8059,-1.809,-1.8355,-1.8386,-1.8409,-1.8201,-1.8205,-1.8207,-1.8353,0,-1.7773,-1.7893,-1.7876,-1.7991,-1.8045,-1.8001,-1.806,-1.8084,-1.8086,-1.8131,-1.8132,-1.8185,-1.8132,-1.8147,-1.8195,-1.8199,-1.8276,-1.8187,-1.8255,-1.8258,-1.8252,-1.8434,-1.8468,-1.8604,-1.8372,-1.8375,-1.8377,0,-1.7956,-1.7993,-1.8114,-1.8134,-1.8156,-1.821,-1.8252,-1.8296,-1.8322,-1.8319,-1.8348,-1.8323,-1.8391,-1.8323,-1.8417,-1.8358,-1.8384,-1.839,-1.8395,-1.8402,-1.8326,-1.8448,-1.8647,-1.8669,-1.8406,-1.8404,-1.8402,0,-1.8087,-1.8167,-1.825,-1.8267,-1.8292,-1.8332,-1.8344,-1.8365,-1.8395,-1.8431,-1.845,-1.8494,-1.8519,-1.8553,-1.854,-1.8492,-1.8638,-1.8568,-1.8639,-1.8639,-1.8673,-1.8672,-1.8881,-1.8687,-1.8687,-1.8686,-1.8686,0,-1.8249,-1.8325,-1.831,-1.8361,-1.8445,-1.8424,-1.8507,-1.8514,-1.8533,-1.8585,-1.8548,-1.8598,-1.8577,-1.8625,-1.8615,-1.8696,-1.8706,-1.8707,-1.8704,-1.8711,-1.8711,-1.873,-1.872,-1.8692,-1.8691,-1.869,-1.8689,0,-1.8411,-1.8404,-1.8491,-1.8507,-1.8513,-1.8574,-1.8588,-1.8636,-1.8634,-1.87,-1.8714,-1.8711,-1.8765,-1.8755,-1.8815,-1.8809,-1.891,-1.8894,-1.8902,-1.8899,-1.897,-1.8964,-1.92,-1.9231,-1.9015,-1.9017,-1.9019,0,-1.8516,-1.8574,-1.8596,-1.8628,-1.8643,-1.8695,-1.8725,-1.8706,-1.8738,-1.8772,-1.8816,-1.8867,-1.8907,-1.8996,-1.8999,-1.9045,-1.9031,-1.911,-1.9038,-1.9044,-1.9034,-1.9032,-1.9038,-1.9126,-1.9128,-1.913,-1.9132,0,-1.8704,-1.8697,-1.8742,-1.8785,-1.8822,-1.8856,-1.8885,-1.8914,-1.8897,-1.8935,-1.8991,-1.9022,-1.9083,-1.9134,-1.9177,-1.9188,-1.9158,-1.9154,-1.9173,-1.9183,-1.9185,-1.9186,-1.8943,-1.9149,-1.9148,-1.9146,-1.9145,-1.9145,-1.8841,-1.8891,-1.8914,-1.8965,-1.8985,-1.9014,-1.906,-1.9064,-1.911,-1.9158,-1.9143,-1.9207,-1.923,-1.9284,-1.9301,-1.935,-1.932,-1.9347,-1.9354,-1.9362,-1.9371,-1.9176,-1.9357,-1.9357,-1.9356,-1.9356,-1.9355,0,-1.9028,-1.9041,-1.9088,-1.9131,-1.9171,-1.9138,-1.9169,-1.9205,-1.9261,-1.9286,-1.9326,-1.9389,-1.9439,-1.9445,-1.9492,-1.953,-1.9517,-1.9543,-1.9541,-1.9545,-1.9394,-1.9374,-1.9553,-1.9553,-1.9553,-1.9553,-1.9553,-1.9553,-1.913,-1.9213,-1.9209,-1.93,-1.9312,-1.9374,-1.9395,-1.9421,-1.944,-1.9513,-1.9554,-1.9558,-1.9575,-1.9623,-1.9667,-1.9667,-1.9687,-1.9719,-1.9715,-1.9575,-1.9555,-1.9536,-1.9517,-1.9723,-1.9723,-1.9861,-1.9862,-1.9863]},{"header":{"parameterUnit":"m.s-1","parameterCategory":1,"la1":30.2991,"la2":30.254,"lo1":-89.0895,"lo2":-89.0444,"dy":0.0017,"dx":0.0017,"nx":28,"ny":28,"refTime":"2024-10-21T09:00:00:Z","depth":0,"parameterNumber":3,"parameterNumberName":"V-component_of_WINDS"},"data":[0,0,0,0,0,0,0,0,0,0,0,0,0,0,0,0,0,0,0,0,0,0,0,0,0,0,0,0,0,0,0,0,0,0,0,0,0,0,0,0,0,0,0,0,0,0,0,0,0,0,0,0,0,0,0,0,0,0,-4.1665,-4.1666,0,-4.1739,-4.174,-4.1741,-4.1701,-4.1699,-4.1697,-4.1695,-4.1766,-4.177,-4.1774,0,0,0,0,0,0,0,0,0,0,0,0,0,-4.1483,-4.1486,-4.1665,-4.1666,-4.1667,-4.1739,-4.174,-4.1741,-4.1702,-4.1699,-4.1697,-4.1694,-4.1765,-4.177,-4.1774,0,0,0,0,0,0,0,0,0,0,0,0,0,-4.156,-4.1487,-4.1665,-4.1656,-4.1656,-4.1739,-4.174,-4.1742,-4.1702,-4.1699,-4.1696,-4.1693,-4.1764,-4.1769,-4.1775,-4.1869,0,0,-4.1792,-4.1794,0,0,0,0,0,0,0,0,-4.1555,-4.1567,-4.1656,-4.1657,-4.1657,-4.1708,-4.1702,-4.1784,-4.1703,-4.1684,-4.1695,-4.1692,-4.1749,-4.1756,-4.1776,-4.1873,-4.1876,-4.1792,-4.1796,-4.1798,-4.18,0,0,0,0,0,0,0,-4.155,-4.1563,-4.1694,-4.1658,-4.1658,-4.1646,-4.1654,-4.1717,-4.1732,-4.1686,-4.1683,-4.1693,-4.1748,-4.1771,-4.1777,-4.1877,-4.1792,-4.1797,-4.1801,-4.1803,-4.2054,-4.2057,0,0,0,0,0,0,-4.1546,-4.1559,-4.1692,-4.1696,-4.1598,-4.1652,-4.1661,-4.1695,-4.1732,-4.1735,-4.1695,-4.169,-4.1763,-4.1771,-4.178,-4.1892,-4.1798,-4.1803,-4.1807,-4.205,-4.2054,-4.2058,0,0,0,0,0,0,-4.1542,-4.1558,-4.1689,-4.1627,-4.1643,-4.1658,-4.1697,-4.1698,-4.172,-4.1739,-4.1741,-4.1715,-4.1761,-4.1772,-4.1847,-4.1894,-4.1806,-4.1811,-4.2046,-4.2051,-4.2056,-4.2119,0,0,0,0,0,0,-4.1537,-4.1557,-4.1595,-4.1628,-4.1646,-4.1757,-4.17,-4.1701,-4.173,-4.1725,-4.1758,-4.1761,-4.1759,-4.1839,-4.1853,-4.19,-4.1815,-4.2042,-4.2049,-4.2054,-4.2113,-4.2125,-4.2136,0,0,0,0,0,-4.1531,-4.1609,-4.1597,-4.1613,-4.1694,-4.176,-4.177,-4.1768,-4.1734,-4.1771,-4.1783,-4.176,-4.1887,-4.1847,-4.1863,-4.1912,-4.2039,-4.2047,-4.2054,-4.2107,-4.2123,-4.2136,0,0,0,0,0,0,-4.1579,-4.1613,-4.16,-4.1692,-4.1724,-4.1753,-4.18,-4.1784,-4.1825,-4.1818,-4.1812,-4.182,-4.1898,-4.1913,-4.1868,-4.2005,-4.1958,-4.1968,-4.1993,-4.2008,-4.2019,-4.2014,-4.182,0,0,0,0,0,-4.16,-4.1653,-4.1679,-4.1757,-4.1774,-4.1784,-4.1813,-4.1809,-4.1841,-4.1853,-4.1871,-4.1901,-4.1948,-4.1979,-4.2023,-4.2115,-4.212,-4.2156,-4.2168,-4.2177,-4.2186,-4.2235,-4.2251,-4.2082,-4.2082,-4.2082,0,0,-4.1644,-4.167,-4.1703,-4.1767,-4.1792,-4.1844,-4.1796,-4.1854,-4.1893,-4.1862,-4.1934,-4.1948,-4.1982,-4.2066,-4.2103,-4.208,-4.2234,-4.2187,-4.2194,-4.2198,-4.2244,-4.226,-4.2274,-4.2087,-4.2086,-4.2085,0,0,-4.1752,-4.1777,-4.1845,-4.187,-4.1908,-4.1914,-4.193,-4.1963,-4.1971,-4.2045,-4.2022,-4.2067,-4.2148,-4.2172,-4.2195,-4.2312,-4.2291,-4.2326,-4.2387,-4.2434,-4.2447,-4.2459,-4.2499,-4.2514,-4.2335,-4.2335,-4.2335,0,-4.1802,-4.1883,-4.1881,-4.1941,-4.1969,-4.1945,-4.2012,-4.2036,-4.2085,-4.2104,-4.2078,-4.2179,-4.2199,-4.2288,-4.2317,-4.2337,-4.2353,-4.2322,-4.2446,-4.2458,-4.2469,-4.2507,-4.2522,-4.2339,-4.2339,-4.2338,-4.2338,0,-4.1941,-4.1998,-4.2047,-4.2097,-4.2131,-4.2194,-4.22,-4.2234,-4.2226,-4.2235,-4.2309,-4.2333,-4.2381,-4.2402,-4.2394,-4.2489,-4.2473,-4.2447,-4.2399,-4.2489,-4.2524,-4.2539,-4.2345,-4.2343,-4.2342,-4.2341,0,0,-4.2081,-4.213,-4.2148,-4.217,-4.2209,-4.2252,-4.2313,-4.2362,-4.239,-4.2425,-4.2475,-4.2544,-4.2519,-4.2545,-4.254,-4.2582,-4.2671,-4.255,-4.255,-4.2571,-4.2776,-4.2795,-4.2812,-4.2658,-4.2661,-4.2663,-4.2772,0,-4.219,-4.23,-4.23,-4.24,-4.245,-4.2428,-4.2481,-4.251,-4.252,-4.2562,-4.2572,-4.2621,-4.2585,-4.2601,-4.2641,-4.2652,-4.2712,-4.2644,-4.2703,-4.2705,-4.2695,-4.2831,-4.2852,-4.2954,-4.2786,-4.2789,-4.2791,0,-4.2333,-4.2374,-4.248,-4.2512,-4.2533,-4.2581,-4.2625,-4.2667,-4.2698,-4.2702,-4.2732,-4.272,-4.278,-4.2731,-4.2813,-4.2767,-4.279,-4.2799,-4.2803,-4.2808,-4.2753,-4.2838,-4.2986,-4.3001,-4.2813,-4.2811,-4.2809,0,-4.2423,-4.2505,-4.2578,-4.2598,-4.2637,-4.2671,-4.2688,-4.2717,-4.2746,-4.2784,-4.2802,-4.2846,-4.287,-4.2903,-4.2903,-4.2867,-4.2985,-4.2936,-4.2988,-4.2988,-4.3014,-4.3012,-4.3166,-4.3031,-4.303,-4.303,-4.303,0,-4.2545,-4.261,-4.2619,-4.2664,-4.2736,-4.2734,-4.2804,-4.2818,-4.2844,-4.289,-4.2873,-4.2916,-4.2914,-4.2957,-4.2957,-4.3024,-4.3035,-4.3038,-4.3037,-4.3039,-4.3039,-4.3054,-4.3046,-4.3034,-4.3033,-4.3033,-4.3032,0,-4.2658,-4.2666,-4.2745,-4.2776,-4.2785,-4.2836,-4.2862,-4.2903,-4.2911,-4.297,-4.2983,-4.2995,-4.3045,-4.3048,-4.3105,-4.3105,-4.3186,-4.3178,-4.3176,-4.3174,-4.3225,-4.322,-4.3394,-4.3417,-4.3268,-4.3269,-4.327,0,-4.2734,-4.2784,-4.2821,-4.2851,-4.2871,-4.292,-4.295,-4.2949,-4.2981,-4.302,-4.3057,-4.3106,-4.3144,-4.3224,-4.3237,-4.328,-4.3272,-4.333,-4.3278,-4.3278,-4.3271,-4.3268,-4.3272,-4.334,-4.3341,-4.3343,-4.3344,0,-4.287,-4.2871,-4.2916,-4.2963,-4.2999,-4.3035,-4.3068,-4.3093,-4.3097,-4.3132,-4.3184,-4.3214,-4.3273,-4.332,-4.3363,-4.3378,-4.3361,-4.336,-4.3374,-4.3376,-4.3373,-4.3374,-4.3202,-4.3356,-4.3355,-4.3354,-4.3353,-4.3353,-4.2966,-4.3009,-4.3041,-4.3091,-4.3117,-4.3148,-4.3189,-4.3202,-4.3246,-4.3295,-4.3291,-4.3348,-4.3377,-4.3432,-4.3451,-4.3494,-4.3474,-4.3495,-4.35,-4.3505,-4.351,-4.3367,-4.3502,-4.3501,-4.3501,-4.3501,-4.35,0,-4.3099,-4.3119,-4.3165,-4.3213,-4.3252,-4.3235,-4.327,-4.3303,-4.3354,-4.3383,-4.3422,-4.348,-4.3526,-4.3543,-4.3587,-4.3618,-4.3611,-4.363,-4.3627,-4.363,-4.3525,-4.3508,-4.3634,-4.3634,-4.3634,-4.3634,-4.3634,-4.3634,-4.3173,-4.3244,-4.325,-4.3333,-4.3352,-4.3409,-4.3431,-4.3459,-4.3482,-4.3549,-4.3588,-4.3599,-4.3622,-4.3668,-4.3708,-4.3712,-4.3728,-4.375,-4.375,-4.3651,-4.3638,-4.3625,-4.3609,-4.3754,-4.3754,-4.3851,-4.3852,-4.3852]}]]